sat.trackr.live / text

‹ back to catalog

STARLINK-31061

NORAD 58611 · 2023-200Y

PAYLOAD ACTIVE UNKNOWN

§ Identity

Operator
Country
US
Launch date
2023-12-19
Launch site
AFETR
Launch vehicle
Mass (kg)
RCS (m²)

Purposes: comms

External: N2YO · Heavens-Above · Gunter

§ Orbital elements

Epoch: 2026-05-25T03:44:45.134880Z

Period
94.27 min
Inclination
43.0022°
Eccentricity
0.0001168
Mean motion
15.27573431 rev/d
Perigee alt
482.3 km
Apogee alt
483.9 km
Semi-major
6,861.2 km
B*
1.2117e-4
RAAN
97.1493°
Arg perigee
253.6981°
Mean anomaly
106.3742°
Rev number
13,530

§ Raw data

STARLINK-310611 58611U 23200Y   26145.15607795  .00003073  00000+0  12117-3 0  99932 58611  43.0022  97.1493 0001168 253.6981 106.3742 15.27573431135300

JSON: /api/v1/satellites/58611 · /tle

For live sub-satellite position, see the globe view (requires WebGL).

§ Visibility from observer

Set your observer location to see the next 7 days of passes ≥ 10°. The values pass through the URL so the page stays shareable.

No JS? Fill the form by hand. The geolocation button needs JavaScript.